Regional Weather Roundup
Issued by NWS Memphis, TN

Home | Current Version | Previous Version | Text Only | Print | Product List | Glossary On
Versions: 1 2 3 4 5 6 7 8 9 10 11 12 13 14 15 16 17 18 19 20 21 22 23 24 25 26 27 28 29 30 31 32 33 34 35 36 37 38 39 40 41 42 43 44 45 46 47 48 49 50
000
ASUS44 KMEG 240500
RWRMEG
MEMPHIS CWA HOURLY WEATHER ROUNDUP
NATIONAL WEATHER SERVICE MEMPHIS TN
1200 AM CDT WED MAY 24 2017

...WEST TENNESSEE...

CITY           SKY/WX    TMP DP  RH WIND       PRES   REMARKS
MEMPHIS INTL   LGT RAIN  62  61  96 W5        29.68S
NWS MEMPHIS      N/A     62 N/A N/A MISG        N/A
JACKSON        CLOUDY    67  56  67 W3        29.65F
DYERSBURG        N/A    N/A N/A N/A MISG        N/A


...EASTERN ARKANSAS...

CITY           SKY/WX    TMP DP  RH WIND       PRES   REMARKS
JONESBORO      LGT RAIN  61  59  93 NW5       29.68F
WEST MEMPHIS   LGT RAIN  61  60  97 CALM      29.67S
BATESVILLE     CLOUDY    61  55  82 W5        29.72F
NEWPORT        LGT RAIN  62  61  96 NW7       29.69F
WALNUT RIDGE   CLOUDY    63  57  82 NW9       29.69F
BLYTHEVILLE    LGT RAIN  63  61  93 N8        29.67F
SEARCY         LGT RAIN  61  60  97 NW6       29.73F
STUTTGART      CLOUDY    63  52  67 N7        29.71F
PINE BLUFF     HVY RAIN  63  59  87 W6        29.72S FOG
MONTICELLO     RAIN      62  60  93 CALM      29.71S FOG


...NORTH MISSISSIPPI...

CITY           SKY/WX    TMP DP  RH WIND       PRES   REMARKS
TUPELO         CLOUDY    66  62  87 S5        29.66F
TUNICA         RAIN      59  57  94 N5        29.69F
CLARKSDALE       N/A     63  63 100 MISG      29.69F
GREENWOOD      LGT RAIN  66  63  90 SW9       29.70S
COLUMBUS       PTCLDY    64  64 100 SW7       29.67F
STARKVILLE     PTCLDY    63  63 100 CALM      29.70F
GOLDEN TRIANGL PTCLDY    64  61  88 SW5       29.65S


...SOUTHEAST MISSOURI...

CITY           SKY/WX    TMP DP  RH WIND       PRES   REMARKS
KENNETT        LGT RAIN  63  59  88 N8        29.66F
MALDEN         MOCLDY    63  59  88 NW6       29.69F
WEST PLAINS    PTCLDY    55  51  86 W5        29.74F
POPLAR BLUFF   CLOUDY    60  58  92 N5        29.69S
CAPE GIRARDEAU MOCLDY    60  53  77 NW6       29.67F


...NORTHWEST ALABAMA...

CITY           SKY/WX    TMP DP  RH WIND       PRES   REMARKS
MUSCLE SHOALS  CLOUDY    67  63  87 CALM      29.67F


...MIDDLE TENNESSEE...

CITY           SKY/WX    TMP DP  RH WIND       PRES   REMARKS
NASHVILLE      CLOUDY    67  58  72 CALM      29.64F
CLARKSVILLE    CLOUDY    65  57  75 CALM      29.64F


...WESTERN KENTUCKY...

CITY           SKY/WX    TMP DP  RH WIND       PRES   REMARKS
PADUCAH        CLOUDY    63  57  81 NW3       29.65S
FORT CAMPBELL  CLOUDY    67  53  60 N5        29.63F


...CENTRAL ARKANSAS...

CITY           SKY/WX    TMP DP  RH WIND       PRES   REMARKS
LITTLE ROCK    CLOUDY    62  57  83 NW10      29.73S


SKY/WX REPORTED AS FAIR MEANS FEW OR NO CLOUDS BELOW
12 THOUSAND FEET.





USA.gov is the U.S. government's official web portal to all federal, state and local government web resources and services.